Location: Ravensburg
(47.7866°N, 9.6124°E)
Time: 18:26:08
(UTC+01:00)

Oscar 19 - Visible Passes

Search period start: 14 March 2026 00:00
Search period end: 24 March 2026 00:00
Orbit: 769 x 787 km, 98.9° (Epoch: 14 March)

Date Brightness Start Highest point End Pass type
(mag) Time Alt. Az. Time Alt. Az. Time Alt. Az.
14 Mar 13.8 19:59:19 10° WSW 20:01:54 14° W 20:04:30 10° WNW visible
15 Mar 13.0 19:24:12 10° SSW 19:28:29 26° W 19:32:48 10° NW visible
16 Mar 14.5 05:54:13 10° ENE 05:55:29 11° E 05:56:45 10° E visible
16 Mar 11.8 18:50:17 10° S 18:55:16 50° W 19:00:15 10° NNW visible
17 Mar 13.7 19:59:28 10° WSW 20:02:04 14° W 20:04:40 10° WNW visible
18 Mar 13.0 19:24:22 10° SSW 19:28:40 26° W 19:32:58 10° NW visible
19 Mar 14.5 05:54:26 10° ENE 05:55:39 11° E 05:56:52 10° E visible
20 Mar 13.7 19:59:37 10° WSW 20:02:14 14° W 20:04:51 10° WNW visible
21 Mar 13.0 19:24:32 10° SSW 19:28:49 27° W 19:33:09 10° NW visible
23 Mar 13.7 19:59:45 10° WSW 20:02:23 14° W 20:05:02 10° WNW visible
